Salisbury, MD

9:56 AM EDT on April 27, 2017 (GMT -0400)
Salisbury-Ocean City Wicomico Regional

Weather History for KSBY - February, 2013

Change the Weather History Date:

Monday, February 11, 2013

  Actual Average Record
Temperature  
Mean Temperature 50 °F 37 °F  
Max Temperature 60 °F 46 °F 74 °F (1932)
Min Temperature 40 °F 28 °F 1 °F (1979)
Degree Days  
Heating Degree Days 15 28  
Month to date heating degree days 311 315  
Since 1 July heating degree days 2375 2856  
Cooling Degree Days 0 0  
Month to date cooling degree days 0 0  
Year to date cooling degree days 0 0  
Moisture  
Dew Point 50 °F    
Average Humidity 76    
Maximum Humidity 87    
Minimum Humidity 65    
Precipitation  
Precipitation 0.15 in 0.12 in 2.48 in (1994)
Month to date precipitation 1.89 1.31  
Year to date precipitation 4.89 4.92  
Snow  
Snow 0.00 in 0.10 in 5.30 in (1983)
Month to date snowfall T 1.5  
Since 1 July snowfall 2.8 6.5  
Snow Depth 0.00 in    
Sea Level Pressure  
Sea Level Pressure 29.94 in    
Wind  
Wind Speed 13 mph (SSW)    
Max Wind Speed 24 mph    
Max Gust Speed 33 mph    
Visibility 9 miles    
Events Rain    
T = Trace of Precipitation, MM = Missing Value Source: NWS Daily Summary

Daily Weather History Graph

Daily Weather History Graph

Search for Another Location

Airport or City:

Trip Planner

Search our weather history database for the weather conditions in past years. The results will help you decide how hot, cold, wet, or windy it might be!

Date:

Astronomy

Feb. 11, 2013 Rise Set
Actual Time 6:56 AM EST 5:36 PM EST
Civil Twilight 6:29 AM EST 6:03 PM EST
Nautical Twilight 5:58 AM EST 6:34 PM EST
Astronomical Twilight 5:27 AM EST 7:05 PM EST
Moon 7:22 AM EST (2/11) 7:28 PM EST (2/11)
Length of Visible Light 11h 33m
Length of Day
10h 39m
Waxing Crescent, 3% of the Moon is Illuminated
Feb 11
Waxing Crescent
Feb 17
First Quarter
Feb 25
Full
Mar 4
Last Quarter
Mar 11
New

Hourly Weather History & Observations

Time (EST) Temp. Windchill Dew Point Humidity Pressure Visibility Wind Dir Wind Speed Gust Speed Precip Events Conditions
12:54 AM 41.0 °F 37.1 °F 34.0 °F 76% 30.29 in 10.0 mi SE 5.8 mph - N/A   Mostly Cloudy
1:54 AM 44.1 °F 40.8 °F 35.1 °F 71% 30.25 in 10.0 mi SSE 5.8 mph - N/A   Overcast
2:54 AM 46.0 °F 42.5 °F 35.1 °F 66% 30.22 in 10.0 mi SSE 6.9 mph - 0.00 in   Overcast
3:54 AM 46.9 °F - 39.0 °F 74% 30.18 in 10.0 mi SSE 6.9 mph - 0.00 in   Overcast
4:54 AM 48.0 °F - 43.0 °F 83% 30.15 in 10.0 mi SSE 10.4 mph - 0.00 in Rain Light Rain
7:45 AM 53.6 °F - 48.2 °F 82% 30.08 in 3.0 mi South 15.0 mph 21.9 mph 0.01 in Rain Light Rain
7:51 AM 53.6 °F - 48.2 °F 82% 30.08 in 2.5 mi South 16.1 mph 21.9 mph 0.03 in Rain Rain
7:54 AM 54.0 °F - 48.9 °F 83% 30.09 in 2.5 mi South 13.8 mph - 0.03 in Rain Rain
8:03 AM 53.6 °F - 50.0 °F 88% 30.07 in 3.0 mi South 11.5 mph - 0.02 in Rain Light Rain
8:54 AM 55.9 °F - 51.1 °F 84% 30.04 in 10.0 mi South 20.7 mph 27.6 mph 0.07 in Rain Light Rain
9:54 AM 57.9 °F - 53.1 °F 84% 30.02 in 10.0 mi South 13.8 mph 25.3 mph 0.00 in   Overcast
10:54 AM 57.9 °F - 53.1 °F 84% 30.01 in 10.0 mi SSW 13.8 mph 27.6 mph N/A   Overcast
11:41 AM 57.2 °F - 53.6 °F 88% 29.96 in 10.0 mi SSW 19.6 mph 28.8 mph N/A   Overcast
11:54 AM 57.9 °F - 53.1 °F 84% 29.96 in 10.0 mi SSW 16.1 mph 33.4 mph N/A   Overcast
12:54 PM 57.9 °F - 54.0 °F 87% 29.91 in 7.0 mi SSW 19.6 mph 25.3 mph N/A   Overcast
1:54 PM 57.9 °F - 54.0 °F 87% 29.88 in 3.0 mi SSW 15.0 mph 24.2 mph N/A   Overcast
2:54 PM 59.0 °F - 55.0 °F 87% 29.86 in 8.0 mi SSW 15.0 mph - N/A   Overcast
3:54 PM 60.1 °F - 55.0 °F 83% 29.83 in 10.0 mi SSW 13.8 mph - N/A   Overcast
4:07 PM 60.8 °F - 55.4 °F 82% 29.82 in 10.0 mi SSW 13.8 mph - N/A   Overcast
4:54 PM 60.1 °F - 55.0 °F 83% 29.81 in 10.0 mi SSW 13.8 mph - N/A   Overcast
5:01 PM 60.8 °F - 55.4 °F 82% 29.79 in 10.0 mi SSW 17.3 mph 21.9 mph N/A   Mostly Cloudy
5:54 PM 59.0 °F - 55.0 °F 87% 29.79 in 10.0 mi SSW 15.0 mph - N/A   Mostly Cloudy
5:56 PM 59.0 °F - 55.4 °F 88% 29.78 in 10.0 mi SSW 12.7 mph - N/A   Mostly Cloudy
6:54 PM 59.0 °F - 55.0 °F 87% 29.77 in 10.0 mi SSW 15.0 mph - N/A   Mostly Cloudy
7:25 PM 59.0 °F - 55.4 °F 88% 29.76 in 10.0 mi SSW 13.8 mph - N/A   Scattered Clouds
7:54 PM 60.1 °F - 55.0 °F 83% 29.75 in 10.0 mi SSW 13.8 mph - N/A   Clear
8:54 PM 60.1 °F - 55.0 °F 83% 29.75 in 10.0 mi SW 13.8 mph 20.7 mph N/A   Clear
9:54 PM 60.1 °F - 54.0 °F 80% 29.76 in 10.0 mi SW 12.7 mph 20.7 mph N/A   Clear
10:54 PM 59.0 °F - 50.0 °F 72% 29.77 in 10.0 mi WSW 13.8 mph 23.0 mph N/A   Clear
11:54 PM 57.0 °F - 46.9 °F 69% 29.77 in 10.0 mi WSW 11.5 mph - N/A   Clear